Year,Month,Day,Hour,Minute,Value (Times are PST for temperature in C)
2013,07,09,00,00,16.90
2013,07,09,00,01,16.90
2013,07,09,00,02,16.90
2013,07,09,00,03,16.90
2013,07,09,00,04,16.90
2013,07,09,00,05,16.90
2013,07,09,00,06,16.80
2013,07,09,00,07,16.80
2013,07,09,00,08,16.80
2013,07,09,00,09,16.80
2013,07,09,00,10,16.80
2013,07,09,00,11,16.70
2013,07,09,00,12,16.70
2013,07,09,00,13,16.70
2013,07,09,00,14,16.70
2013,07,09,00,15,16.70
2013,07,09,00,16,16.70
2013,07,09,00,17,16.60
2013,07,09,00,18,16.60
2013,07,09,00,19,16.60
2013,07,09,00,20,16.50
2013,07,09,00,21,16.50
2013,07,09,00,22,16.50
2013,07,09,00,23,16.50
2013,07,09,00,24,16.40
2013,07,09,00,25,16.40
2013,07,09,00,26,16.40
2013,07,09,00,27,16.40
2013,07,09,00,28,16.40
2013,07,09,00,29,16.40
2013,07,09,00,30,16.40
2013,07,09,00,31,16.40
2013,07,09,00,32,16.40
2013,07,09,00,33,16.40
2013,07,09,00,34,16.40
2013,07,09,00,35,16.40
2013,07,09,00,36,16.40
2013,07,09,00,37,16.40
2013,07,09,00,38,16.40
2013,07,09,00,39,16.40
2013,07,09,00,40,16.30
2013,07,09,00,41,16.30
2013,07,09,00,42,16.30
2013,07,09,00,43,16.30
2013,07,09,00,44,16.30
2013,07,09,00,45,16.30
2013,07,09,00,46,16.30
2013,07,09,00,47,16.30
2013,07,09,00,48,16.30
2013,07,09,00,49,16.30
2013,07,09,00,50,16.30
2013,07,09,00,51,16.30
2013,07,09,00,52,16.30
2013,07,09,00,53,16.20
2013,07,09,00,54,16.20
2013,07,09,00,55,16.20
2013,07,09,00,56,16.20
2013,07,09,00,57,16.20
2013,07,09,00,58,16.20
2013,07,09,00,59,16.20
2013,07,09,01,00,16.10
2013,07,09,01,01,16.10
2013,07,09,01,02,16.10
2013,07,09,01,03,16.10
2013,07,09,01,04,16.10
2013,07,09,01,05,16.10
2013,07,09,01,06,16.00
2013,07,09,01,07,16.00
2013,07,09,01,08,15.90
2013,07,09,01,09,15.90
2013,07,09,01,10,15.90
2013,07,09,01,11,15.90
2013,07,09,01,12,15.90
2013,07,09,01,13,15.90
2013,07,09,01,14,15.80
2013,07,09,01,15,15.80
2013,07,09,01,16,15.80
2013,07,09,01,17,15.80
2013,07,09,01,18,15.80
2013,07,09,01,19,15.80
2013,07,09,01,20,15.80
2013,07,09,01,21,15.70
2013,07,09,01,22,15.70
2013,07,09,01,23,15.70
2013,07,09,01,24,15.70
2013,07,09,01,25,15.70
2013,07,09,01,26,15.70
2013,07,09,01,27,15.70
2013,07,09,01,28,15.70
2013,07,09,01,29,15.70
2013,07,09,01,30,15.70
2013,07,09,01,31,15.70
2013,07,09,01,32,15.70
2013,07,09,01,33,15.70
2013,07,09,01,34,15.60
2013,07,09,01,35,15.60
2013,07,09,01,36,15.60
2013,07,09,01,37,15.60
2013,07,09,01,38,15.60
2013,07,09,01,39,15.60
2013,07,09,01,40,15.60
2013,07,09,01,41,15.60
2013,07,09,01,42,15.60
2013,07,09,01,43,15.60
2013,07,09,01,44,15.60
2013,07,09,01,45,15.60
2013,07,09,01,46,15.60
2013,07,09,01,47,15.60
2013,07,09,01,48,15.60
2013,07,09,01,49,15.60
2013,07,09,01,50,15.60
2013,07,09,01,51,15.60
2013,07,09,01,52,15.60
2013,07,09,01,53,15.60
2013,07,09,01,54,15.50
2013,07,09,01,55,15.60
2013,07,09,01,56,15.50
2013,07,09,01,57,15.50
2013,07,09,01,58,15.50
2013,07,09,01,59,15.50
2013,07,09,02,00,15.50
2013,07,09,02,01,15.50
2013,07,09,02,02,15.50
2013,07,09,02,03,15.50
2013,07,09,02,04,15.40
2013,07,09,02,05,15.40
2013,07,09,02,06,15.40
2013,07,09,02,07,15.40
2013,07,09,02,08,15.40
2013,07,09,02,09,15.40
2013,07,09,02,10,15.40
2013,07,09,02,11,15.40
2013,07,09,02,12,15.40
2013,07,09,02,13,15.40
2013,07,09,02,14,15.40
2013,07,09,02,15,15.40
2013,07,09,02,16,15.40
2013,07,09,02,17,15.40
2013,07,09,02,18,15.40
2013,07,09,02,19,15.30
2013,07,09,02,20,15.30
2013,07,09,02,21,15.30
2013,07,09,02,22,15.30
2013,07,09,02,23,15.30
2013,07,09,02,24,15.30
2013,07,09,02,25,15.30
2013,07,09,02,26,15.30
2013,07,09,02,27,15.30
2013,07,09,02,28,15.30
2013,07,09,02,29,15.30
2013,07,09,02,30,15.30
2013,07,09,02,31,15.30
2013,07,09,02,32,15.30
2013,07,09,02,33,15.30
2013,07,09,02,34,15.30
2013,07,09,02,35,15.30
2013,07,09,02,36,15.30
2013,07,09,02,37,15.30
2013,07,09,02,38,15.30
2013,07,09,02,39,15.20
2013,07,09,02,40,15.30
2013,07,09,02,41,15.20
2013,07,09,02,42,15.20
2013,07,09,02,43,15.20
2013,07,09,02,44,15.20
2013,07,09,02,45,15.20
2013,07,09,02,46,15.20
2013,07,09,02,47,15.20
2013,07,09,02,48,15.20
2013,07,09,02,49,15.20
2013,07,09,02,50,15.20
2013,07,09,02,51,15.20
2013,07,09,02,52,15.20
2013,07,09,02,53,15.20
2013,07,09,02,54,15.20
2013,07,09,02,55,15.10
2013,07,09,02,56,15.10
2013,07,09,02,57,15.00
2013,07,09,02,58,15.00
2013,07,09,02,59,15.00
2013,07,09,03,00,15.00
2013,07,09,03,01,15.00
2013,07,09,03,02,15.00
2013,07,09,03,03,15.00
2013,07,09,03,04,15.00
2013,07,09,03,05,15.00
2013,07,09,03,06,15.00
2013,07,09,03,07,15.00
2013,07,09,03,08,15.00
2013,07,09,03,09,15.00
2013,07,09,03,10,15.00
2013,07,09,03,11,15.00
2013,07,09,03,12,15.00
2013,07,09,03,13,15.00
2013,07,09,03,14,15.10
2013,07,09,03,15,15.10
2013,07,09,03,16,15.10
2013,07,09,03,17,15.20
2013,07,09,03,18,15.20
2013,07,09,03,19,15.20
2013,07,09,03,20,15.20
2013,07,09,03,21,15.20
2013,07,09,03,22,15.20
2013,07,09,03,23,15.20
2013,07,09,03,24,15.20
2013,07,09,03,25,15.10
2013,07,09,03,26,15.10
2013,07,09,03,27,15.00
2013,07,09,03,28,15.00
2013,07,09,03,29,15.00
2013,07,09,03,30,15.00
2013,07,09,03,31,15.00
2013,07,09,03,32,15.00
2013,07,09,03,33,15.00
2013,07,09,03,34,15.00
2013,07,09,03,35,14.90
2013,07,09,03,36,14.90
2013,07,09,03,37,14.80
2013,07,09,03,38,14.80
2013,07,09,03,39,14.80
2013,07,09,03,40,14.70
2013,07,09,03,41,14.70
2013,07,09,03,42,14.70
2013,07,09,03,43,14.70
2013,07,09,03,44,14.70
2013,07,09,03,45,14.70
2013,07,09,03,46,14.70
2013,07,09,03,47,14.70
2013,07,09,03,48,14.70
2013,07,09,03,49,14.60
2013,07,09,03,50,14.60
2013,07,09,03,51,14.60
2013,07,09,03,52,14.60
2013,07,09,03,53,14.50
2013,07,09,03,54,14.50
2013,07,09,03,55,14.50
2013,07,09,03,56,14.50
2013,07,09,03,57,14.50
2013,07,09,03,58,14.50
2013,07,09,03,59,14.60
2013,07,09,04,00,14.60
2013,07,09,04,01,14.60
2013,07,09,04,02,14.60
2013,07,09,04,03,14.60
2013,07,09,04,04,14.60
2013,07,09,04,05,14.50
2013,07,09,04,06,14.50
2013,07,09,04,07,14.50
2013,07,09,04,08,14.50
2013,07,09,04,09,14.50
2013,07,09,04,10,14.50
2013,07,09,04,11,14.50
2013,07,09,04,12,14.50
2013,07,09,04,13,14.40
2013,07,09,04,14,14.40
2013,07,09,04,15,14.40
2013,07,09,04,16,14.40
2013,07,09,04,17,14.40
2013,07,09,04,18,14.40
2013,07,09,04,19,14.40
2013,07,09,04,20,14.40
2013,07,09,04,21,14.40
2013,07,09,04,22,14.30
2013,07,09,04,23,14.30
2013,07,09,04,24,14.30
2013,07,09,04,25,14.30
2013,07,09,04,26,14.30
2013,07,09,04,27,14.30
2013,07,09,04,28,14.30
2013,07,09,04,29,14.30
2013,07,09,04,30,14.30
2013,07,09,04,31,14.30
2013,07,09,04,32,14.30
2013,07,09,04,33,14.30
2013,07,09,04,34,14.40
2013,07,09,04,35,14.40
2013,07,09,04,36,14.40
2013,07,09,04,37,14.40
2013,07,09,04,38,14.40
2013,07,09,04,39,14.40
2013,07,09,04,40,14.40
2013,07,09,04,41,14.40
2013,07,09,04,42,14.30
2013,07,09,04,43,14.30
2013,07,09,04,44,14.30
2013,07,09,04,45,14.30
2013,07,09,04,46,14.30
2013,07,09,04,47,14.30
2013,07,09,04,48,14.30
2013,07,09,04,49,14.30
2013,07,09,04,50,14.30
2013,07,09,04,51,14.30
2013,07,09,04,52,14.30
2013,07,09,04,53,14.30
2013,07,09,04,54,14.30
2013,07,09,04,55,14.30
2013,07,09,04,56,14.30
2013,07,09,04,57,14.30
2013,07,09,04,58,14.30
2013,07,09,04,59,14.20
2013,07,09,05,00,14.20
2013,07,09,05,01,14.20
2013,07,09,05,02,14.20
2013,07,09,05,03,14.20
2013,07,09,05,04,14.20
2013,07,09,05,05,14.10
2013,07,09,05,06,14.10
2013,07,09,05,07,14.10
2013,07,09,05,08,14.10
2013,07,09,05,09,14.10
2013,07,09,05,10,14.10
2013,07,09,05,11,14.10
2013,07,09,05,12,14.10
2013,07,09,05,13,14.00
2013,07,09,05,14,14.00
2013,07,09,05,15,14.00
2013,07,09,05,16,14.00
2013,07,09,05,17,14.00
2013,07,09,05,18,14.00
2013,07,09,05,19,14.00
2013,07,09,05,20,13.90
2013,07,09,05,21,13.90
2013,07,09,05,22,13.90
2013,07,09,05,23,13.90
2013,07,09,05,24,13.90
2013,07,09,05,25,13.80
2013,07,09,05,26,13.80
2013,07,09,05,27,13.80
2013,07,09,05,28,13.80
2013,07,09,05,29,13.80
2013,07,09,05,30,13.70
2013,07,09,05,31,13.70
2013,07,09,05,32,13.70
2013,07,09,05,33,13.70
2013,07,09,05,34,13.60
2013,07,09,05,35,13.60
2013,07,09,05,36,13.60
2013,07,09,05,37,13.60
2013,07,09,05,38,13.50
2013,07,09,05,39,13.50
2013,07,09,05,40,13.40
2013,07,09,05,41,13.40
2013,07,09,05,42,13.40
2013,07,09,05,43,13.40
2013,07,09,05,44,13.30
2013,07,09,05,45,13.30
2013,07,09,05,46,13.30
2013,07,09,05,47,13.30
2013,07,09,05,48,13.20
2013,07,09,05,49,13.30
2013,07,09,05,50,13.20
2013,07,09,05,51,13.30
2013,07,09,05,52,13.30
2013,07,09,05,53,13.20
2013,07,09,05,54,13.30
2013,07,09,05,55,13.30
2013,07,09,05,56,13.30
2013,07,09,05,57,13.30
2013,07,09,05,58,13.30
2013,07,09,05,59,13.30
2013,07,09,06,00,13.30
2013,07,09,06,01,13.40
2013,07,09,06,02,13.40
2013,07,09,06,03,13.40
2013,07,09,06,04,13.50
2013,07,09,06,05,13.50
2013,07,09,06,06,13.60
2013,07,09,06,07,13.60
2013,07,09,06,08,13.70
2013,07,09,06,09,13.70
2013,07,09,06,10,13.70
2013,07,09,06,11,13.70
2013,07,09,06,12,13.80
2013,07,09,06,13,13.80
2013,07,09,06,14,13.80
2013,07,09,06,15,13.90
2013,07,09,06,16,13.90
2013,07,09,06,17,13.90
2013,07,09,06,18,14.00
2013,07,09,06,19,14.00
2013,07,09,06,20,14.10
2013,07,09,06,21,14.10
2013,07,09,06,22,14.20
2013,07,09,06,23,14.20
2013,07,09,06,24,14.20
2013,07,09,06,25,14.20
2013,07,09,06,26,14.30
2013,07,09,06,27,14.30
2013,07,09,06,28,14.30
2013,07,09,06,29,14.30
2013,07,09,06,30,14.40
2013,07,09,06,31,14.40
2013,07,09,06,32,14.40
2013,07,09,06,33,14.40
2013,07,09,06,34,14.50
2013,07,09,06,35,14.50
2013,07,09,06,36,14.60
2013,07,09,06,37,14.60
2013,07,09,06,38,14.70
2013,07,09,06,39,14.70
2013,07,09,06,40,14.80
2013,07,09,06,41,14.80
2013,07,09,06,42,14.80
2013,07,09,06,43,14.90
2013,07,09,06,44,15.00
2013,07,09,06,45,15.00
2013,07,09,06,46,15.00
2013,07,09,06,47,15.00
2013,07,09,06,48,15.00
2013,07,09,06,49,15.00
2013,07,09,06,50,15.10
2013,07,09,06,51,15.20
2013,07,09,06,52,15.20
2013,07,09,06,53,15.20
2013,07,09,06,54,15.30
2013,07,09,06,55,15.30
2013,07,09,06,56,15.30
2013,07,09,06,57,15.30
2013,07,09,06,58,15.40
2013,07,09,06,59,15.40
2013,07,09,07,00,15.40
2013,07,09,07,01,15.40
2013,07,09,07,02,15.50
2013,07,09,07,03,15.50
2013,07,09,07,04,15.50
2013,07,09,07,05,15.60
2013,07,09,07,06,15.60
2013,07,09,07,07,15.60
2013,07,09,07,08,15.70
2013,07,09,07,09,15.80
2013,07,09,07,10,15.90
2013,07,09,07,11,16.00
2013,07,09,07,12,16.10
2013,07,09,07,13,16.20
2013,07,09,07,14,16.30
2013,07,09,07,15,16.40
2013,07,09,07,16,16.50
2013,07,09,07,17,16.50
2013,07,09,07,18,16.60
2013,07,09,07,19,16.70
2013,07,09,07,20,16.80
2013,07,09,07,21,16.90
2013,07,09,07,22,17.00
2013,07,09,07,23,17.10
2013,07,09,07,24,17.20
2013,07,09,07,25,17.20
2013,07,09,07,26,17.30
2013,07,09,07,27,17.30
2013,07,09,07,28,17.40
2013,07,09,07,29,17.40
2013,07,09,07,30,17.40
2013,07,09,07,31,17.40
2013,07,09,07,32,17.40
2013,07,09,07,33,17.50
2013,07,09,07,34,17.60
2013,07,09,07,35,17.60
2013,07,09,07,36,17.70
2013,07,09,07,37,17.70
2013,07,09,07,38,17.70
2013,07,09,07,39,17.80
2013,07,09,07,40,17.80
2013,07,09,07,41,17.90
2013,07,09,07,42,18.00
2013,07,09,07,43,18.10
2013,07,09,07,44,18.20
2013,07,09,07,45,18.20
2013,07,09,07,46,18.20
2013,07,09,07,47,18.30
2013,07,09,07,48,18.20
2013,07,09,07,49,18.20
2013,07,09,07,50,18.20
2013,07,09,07,51,18.20
2013,07,09,07,52,18.20
2013,07,09,07,53,18.20
2013,07,09,07,54,18.20
2013,07,09,07,55,18.20
2013,07,09,07,56,18.20
2013,07,09,07,57,18.30
2013,07,09,07,58,18.30
2013,07,09,07,59,18.30
2013,07,09,08,00,18.30
2013,07,09,08,01,18.40
2013,07,09,08,02,18.50
2013,07,09,08,03,18.60
2013,07,09,08,04,18.60
2013,07,09,08,05,18.70
2013,07,09,08,06,18.70
2013,07,09,08,07,18.80
2013,07,09,08,08,18.90
2013,07,09,08,09,18.90
2013,07,09,08,10,19.00
2013,07,09,08,11,19.00
2013,07,09,08,12,19.00
2013,07,09,08,13,19.00
2013,07,09,08,14,19.00
2013,07,09,08,15,18.90
2013,07,09,08,16,18.90
2013,07,09,08,17,18.90
2013,07,09,08,18,18.80
2013,07,09,08,19,18.80
2013,07,09,08,20,18.80
2013,07,09,08,21,18.80
2013,07,09,08,22,18.80
2013,07,09,08,23,18.80
2013,07,09,08,24,18.80
2013,07,09,08,25,18.80
2013,07,09,08,26,18.80
2013,07,09,08,27,18.80
2013,07,09,08,28,18.80
2013,07,09,08,29,18.80
2013,07,09,08,30,18.80
2013,07,09,08,31,18.80
2013,07,09,08,32,18.80
2013,07,09,08,33,18.80
2013,07,09,08,34,18.80
2013,07,09,08,35,18.80
2013,07,09,08,36,18.80
2013,07,09,08,37,18.80
2013,07,09,08,38,18.80
2013,07,09,08,39,18.80
2013,07,09,08,40,18.80
2013,07,09,08,41,18.80
2013,07,09,08,42,18.70
2013,07,09,08,43,18.70
2013,07,09,08,44,18.70
2013,07,09,08,45,18.70
2013,07,09,08,46,18.70
2013,07,09,08,47,18.70
2013,07,09,08,48,18.70
2013,07,09,08,49,18.60
2013,07,09,08,50,18.60
2013,07,09,08,51,18.60
2013,07,09,08,52,18.70
2013,07,09,08,53,18.70
2013,07,09,08,54,18.70
2013,07,09,08,55,18.70
2013,07,09,08,56,18.70
2013,07,09,08,57,18.70
2013,07,09,08,58,18.70
2013,07,09,08,59,18.80
2013,07,09,09,00,18.70
2013,07,09,09,01,18.80
2013,07,09,09,02,18.80
2013,07,09,09,03,18.80
2013,07,09,09,04,18.80
2013,07,09,09,05,18.80
2013,07,09,09,06,18.90
2013,07,09,09,07,18.90
2013,07,09,09,08,19.00
2013,07,09,09,09,19.00
2013,07,09,09,10,19.10
2013,07,09,09,11,19.10
2013,07,09,09,12,19.10
2013,07,09,09,13,19.10
2013,07,09,09,14,19.10
2013,07,09,09,15,19.20
2013,07,09,09,16,19.20
2013,07,09,09,17,19.30
2013,07,09,09,18,19.30
2013,07,09,09,19,19.40
2013,07,09,09,20,19.40
2013,07,09,09,21,19.40
2013,07,09,09,22,19.40
2013,07,09,09,23,19.40
2013,07,09,09,24,19.40
2013,07,09,09,25,19.50
2013,07,09,09,26,19.60
2013,07,09,09,27,19.60
2013,07,09,09,28,19.60
2013,07,09,09,29,19.70
2013,07,09,09,30,19.70
2013,07,09,09,31,19.80
2013,07,09,09,32,19.80
2013,07,09,09,33,19.90
2013,07,09,09,34,19.90
2013,07,09,09,35,19.90
2013,07,09,09,36,19.90
2013,07,09,09,37,19.90
2013,07,09,09,38,19.90
2013,07,09,09,39,19.90
2013,07,09,09,40,20.00
2013,07,09,09,41,20.00
2013,07,09,09,42,20.00
2013,07,09,09,43,20.00
2013,07,09,09,44,20.00
2013,07,09,09,45,20.10
2013,07,09,09,46,20.10
2013,07,09,09,47,20.10
2013,07,09,09,48,20.10
2013,07,09,09,49,20.10
2013,07,09,09,50,20.10
2013,07,09,09,51,20.10
2013,07,09,09,52,20.10
2013,07,09,09,53,20.10
2013,07,09,09,54,20.10
2013,07,09,09,55,20.10
2013,07,09,09,56,20.20
2013,07,09,09,57,20.20
2013,07,09,09,58,20.20
2013,07,09,09,59,20.30
2013,07,09,10,00,20.30
2013,07,09,10,01,20.30
2013,07,09,10,02,20.30
2013,07,09,10,03,20.30
2013,07,09,10,04,20.30
2013,07,09,10,05,20.30
2013,07,09,10,06,20.30
2013,07,09,10,07,20.20
2013,07,09,10,08,20.20
2013,07,09,10,09,20.20
2013,07,09,10,10,20.20
2013,07,09,10,11,20.20
2013,07,09,10,12,20.20
2013,07,09,10,13,20.30
2013,07,09,10,14,20.40
2013,07,09,10,15,20.40
2013,07,09,10,16,20.50
2013,07,09,10,17,20.60
2013,07,09,10,18,20.70
2013,07,09,10,19,20.70
2013,07,09,10,20,20.70
2013,07,09,10,21,20.70
2013,07,09,10,22,20.80
2013,07,09,10,23,20.80
2013,07,09,10,24,20.80
2013,07,09,10,25,20.70
2013,07,09,10,26,20.70
2013,07,09,10,27,20.70
2013,07,09,10,28,20.70
2013,07,09,10,29,20.80
2013,07,09,10,30,20.80
2013,07,09,10,31,20.90
2013,07,09,10,32,20.90
2013,07,09,10,33,21.00
2013,07,09,10,34,21.10
2013,07,09,10,35,21.10
2013,07,09,10,36,21.10
2013,07,09,10,37,21.10
2013,07,09,10,38,21.20
2013,07,09,10,39,21.10
2013,07,09,10,40,21.00
2013,07,09,10,41,21.00
2013,07,09,10,42,21.00
2013,07,09,10,43,21.10
2013,07,09,10,44,21.10
2013,07,09,10,45,21.20
2013,07,09,10,46,21.30
2013,07,09,10,47,21.30
2013,07,09,10,48,21.40
2013,07,09,10,49,21.40
2013,07,09,10,50,21.40
2013,07,09,10,51,21.30
2013,07,09,10,52,21.40
2013,07,09,10,53,21.40
2013,07,09,10,54,21.40
2013,07,09,10,55,21.40
2013,07,09,10,56,21.40
2013,07,09,10,57,21.40
2013,07,09,10,58,21.30
2013,07,09,10,59,21.30
2013,07,09,11,00,21.30
2013,07,09,11,01,21.20
2013,07,09,11,02,21.20
2013,07,09,11,03,21.20
2013,07,09,11,04,21.20
2013,07,09,11,05,21.20
2013,07,09,11,06,21.20
2013,07,09,11,07,21.20
2013,07,09,11,08,21.20
2013,07,09,11,09,21.20
2013,07,09,11,10,21.20
2013,07,09,11,11,21.30
2013,07,09,11,12,21.40
2013,07,09,11,13,21.40
2013,07,09,11,14,21.50
2013,07,09,11,15,21.50
2013,07,09,11,16,21.50
2013,07,09,11,17,21.40
2013,07,09,11,18,21.30
2013,07,09,11,19,21.30
2013,07,09,11,20,21.30
2013,07,09,11,21,21.40
2013,07,09,11,22,21.40
2013,07,09,11,23,21.50
2013,07,09,11,24,21.50
2013,07,09,11,25,21.40
2013,07,09,11,26,21.50
2013,07,09,11,27,21.50
2013,07,09,11,28,21.50
2013,07,09,11,29,21.50
2013,07,09,11,30,21.50
2013,07,09,11,31,21.50
2013,07,09,11,32,21.60
2013,07,09,11,33,21.50
2013,07,09,11,34,21.50
2013,07,09,11,35,21.40
2013,07,09,11,36,21.30
2013,07,09,11,37,21.30
2013,07,09,11,38,21.30
2013,07,09,11,39,21.30
2013,07,09,11,40,21.30
2013,07,09,11,41,21.40
2013,07,09,11,42,21.30
2013,07,09,11,43,21.30
2013,07,09,11,44,21.30
2013,07,09,11,45,21.30
2013,07,09,11,46,21.20
2013,07,09,11,47,21.10
2013,07,09,11,48,21.00
2013,07,09,11,49,21.00
2013,07,09,11,50,20.90
2013,07,09,11,51,20.80
2013,07,09,11,52,20.70
2013,07,09,11,53,20.70
2013,07,09,11,54,20.60
2013,07,09,11,55,20.60
2013,07,09,11,56,20.60
2013,07,09,11,57,20.50
2013,07,09,11,58,20.60
2013,07,09,11,59,20.60
2013,07,09,12,00,20.60
2013,07,09,12,01,20.70
2013,07,09,12,02,20.70
2013,07,09,12,03,20.70
2013,07,09,12,04,20.80
2013,07,09,12,05,20.80
2013,07,09,12,06,20.80
2013,07,09,12,07,20.80
2013,07,09,12,08,20.80
2013,07,09,12,09,20.80
2013,07,09,12,10,20.90
2013,07,09,12,11,20.90
2013,07,09,12,12,20.80
2013,07,09,12,13,20.80
2013,07,09,12,14,20.80
2013,07,09,12,15,20.90
2013,07,09,12,16,21.00
2013,07,09,12,17,21.10
2013,07,09,12,18,21.10
2013,07,09,12,19,21.10
2013,07,09,12,20,21.20
2013,07,09,12,21,21.30
2013,07,09,12,22,21.40
2013,07,09,12,23,21.50
2013,07,09,12,24,21.60
2013,07,09,12,25,21.60
2013,07,09,12,26,21.70
2013,07,09,12,27,21.80
2013,07,09,12,28,21.80
2013,07,09,12,29,21.80
2013,07,09,12,30,21.80
2013,07,09,12,31,21.80
2013,07,09,12,32,21.80
2013,07,09,12,33,21.90
2013,07,09,12,34,21.90
2013,07,09,12,35,21.80
2013,07,09,12,36,21.80
2013,07,09,12,37,21.80
2013,07,09,12,38,21.90
2013,07,09,12,39,21.80
2013,07,09,12,40,21.80
2013,07,09,12,41,21.80
2013,07,09,12,42,21.80
2013,07,09,12,43,21.90
2013,07,09,12,44,21.90
2013,07,09,12,45,21.80
2013,07,09,12,46,21.80
2013,07,09,12,47,21.80
2013,07,09,12,48,21.80
2013,07,09,12,49,21.90
2013,07,09,12,50,21.90
2013,07,09,12,51,21.80
2013,07,09,12,52,21.70
2013,07,09,12,53,21.70
2013,07,09,12,54,21.60
2013,07,09,12,55,21.60
2013,07,09,12,56,21.60
2013,07,09,12,57,21.60
2013,07,09,12,58,21.70
2013,07,09,12,59,21.80
2013,07,09,13,00,21.80
2013,07,09,13,01,21.90
2013,07,09,13,02,22.00
2013,07,09,13,03,22.10
2013,07,09,13,04,22.20
2013,07,09,13,05,22.20
2013,07,09,13,06,22.20
2013,07,09,13,07,22.30
2013,07,09,13,08,22.30
2013,07,09,13,09,22.40
2013,07,09,13,10,22.40
2013,07,09,13,11,22.50
2013,07,09,13,12,22.50
2013,07,09,13,13,22.60
2013,07,09,13,14,22.60
2013,07,09,13,15,22.70
2013,07,09,13,16,22.70
2013,07,09,13,17,22.80
2013,07,09,13,18,22.80
2013,07,09,13,19,22.80
2013,07,09,13,20,22.90
2013,07,09,13,21,22.80
2013,07,09,13,22,22.90
2013,07,09,13,23,23.00
2013,07,09,13,24,23.00
2013,07,09,13,25,22.90
2013,07,09,13,26,22.80
2013,07,09,13,27,22.70
2013,07,09,13,28,22.80
2013,07,09,13,29,22.90
2013,07,09,13,30,22.90
2013,07,09,13,31,22.90
2013,07,09,13,32,22.90
2013,07,09,13,33,22.90
2013,07,09,13,34,22.90
2013,07,09,13,35,22.90
2013,07,09,13,36,22.90
2013,07,09,13,37,22.90
2013,07,09,13,38,22.90
2013,07,09,13,39,22.90
2013,07,09,13,40,22.90
2013,07,09,13,41,23.00
2013,07,09,13,42,23.00
2013,07,09,13,43,23.10
2013,07,09,13,44,23.20
2013,07,09,13,45,23.20
2013,07,09,13,46,23.30
2013,07,09,13,47,23.30
2013,07,09,13,48,23.40
2013,07,09,13,49,23.50
2013,07,09,13,50,23.40
2013,07,09,13,51,23.40
2013,07,09,13,52,23.30
2013,07,09,13,53,23.20
2013,07,09,13,54,23.30
2013,07,09,13,55,23.50
2013,07,09,13,56,23.60
2013,07,09,13,57,23.70
2013,07,09,13,58,23.80
2013,07,09,13,59,23.90
2013,07,09,14,00,24.00
2013,07,09,14,01,24.10
2013,07,09,14,02,24.20
2013,07,09,14,03,24.20
2013,07,09,14,04,24.30
2013,07,09,14,05,24.30
2013,07,09,14,06,24.40
2013,07,09,14,07,24.50
2013,07,09,14,08,24.50
2013,07,09,14,09,24.50
2013,07,09,14,10,24.60
2013,07,09,14,11,24.60
2013,07,09,14,12,24.60
2013,07,09,14,13,24.60
2013,07,09,14,14,24.60
2013,07,09,14,15,24.60
2013,07,09,14,16,24.60
2013,07,09,14,17,24.50
2013,07,09,14,18,24.40
2013,07,09,14,19,24.40
2013,07,09,14,20,24.30
2013,07,09,14,21,24.30
2013,07,09,14,22,24.20
2013,07,09,14,23,24.20
2013,07,09,14,24,24.20
2013,07,09,14,25,24.20
2013,07,09,14,26,24.20
2013,07,09,14,27,24.20
2013,07,09,14,28,24.10
2013,07,09,14,29,24.00
2013,07,09,14,30,23.90
2013,07,09,14,31,23.80
2013,07,09,14,32,23.70
2013,07,09,14,33,23.70
2013,07,09,14,34,23.60
2013,07,09,14,35,23.50
2013,07,09,14,36,23.40
2013,07,09,14,37,23.40
2013,07,09,14,38,23.30
2013,07,09,14,39,23.20
2013,07,09,14,40,23.10
2013,07,09,14,41,23.00
2013,07,09,14,42,23.00
2013,07,09,14,43,23.00
2013,07,09,14,44,23.10
2013,07,09,14,45,23.10
2013,07,09,14,46,23.00
2013,07,09,14,47,22.90
2013,07,09,14,48,22.90
2013,07,09,14,49,23.00
2013,07,09,14,50,23.20
2013,07,09,14,51,23.30
2013,07,09,14,52,23.40
2013,07,09,14,53,23.50
2013,07,09,14,54,23.60
2013,07,09,14,55,23.70
2013,07,09,14,56,23.70
2013,07,09,14,57,23.70
2013,07,09,14,58,23.80
2013,07,09,14,59,23.80
2013,07,09,15,00,23.90
2013,07,09,15,01,23.90
2013,07,09,15,02,23.90
2013,07,09,15,03,24.00
2013,07,09,15,04,23.90
2013,07,09,15,05,23.70
2013,07,09,15,06,23.50
2013,07,09,15,07,23.40
2013,07,09,15,08,23.40
2013,07,09,15,09,23.40
2013,07,09,15,10,23.40
2013,07,09,15,11,23.50
2013,07,09,15,12,23.60
2013,07,09,15,13,23.60
2013,07,09,15,14,23.50
2013,07,09,15,15,23.50
2013,07,09,15,16,23.40
2013,07,09,15,17,23.40
2013,07,09,15,18,23.30
2013,07,09,15,19,23.30
2013,07,09,15,20,23.20
2013,07,09,15,21,23.20
2013,07,09,15,22,23.20
2013,07,09,15,23,23.20
2013,07,09,15,24,23.20
2013,07,09,15,25,23.30
2013,07,09,15,26,23.30
2013,07,09,15,27,23.30
2013,07,09,15,28,23.30
2013,07,09,15,29,23.30
2013,07,09,15,30,23.30
2013,07,09,15,31,23.30
2013,07,09,15,32,23.40
2013,07,09,15,33,23.40
2013,07,09,15,34,23.50
2013,07,09,15,35,23.60
2013,07,09,15,36,23.60
2013,07,09,15,37,23.70
2013,07,09,15,38,23.60
2013,07,09,15,39,23.60
2013,07,09,15,40,23.60
2013,07,09,15,41,23.60
2013,07,09,15,42,23.50
2013,07,09,15,43,23.50
2013,07,09,15,44,23.50
2013,07,09,15,45,23.50
2013,07,09,15,46,23.40
2013,07,09,15,47,23.30
2013,07,09,15,48,23.30
2013,07,09,15,49,23.20
2013,07,09,15,50,23.10
2013,07,09,15,51,23.10
2013,07,09,15,52,23.10
2013,07,09,15,53,23.20
2013,07,09,15,54,23.20
2013,07,09,15,55,23.30
2013,07,09,15,56,23.30
2013,07,09,15,57,23.40
2013,07,09,15,58,23.50
2013,07,09,15,59,23.60
2013,07,09,16,00,23.70
2013,07,09,16,01,23.80
2013,07,09,16,02,23.80
2013,07,09,16,03,23.70
2013,07,09,16,04,23.70
2013,07,09,16,05,23.70
2013,07,09,16,06,23.70
2013,07,09,16,07,23.70
2013,07,09,16,08,23.70
2013,07,09,16,09,23.70
2013,07,09,16,10,23.80
2013,07,09,16,11,23.80
2013,07,09,16,12,23.90
2013,07,09,16,13,23.90
2013,07,09,16,14,23.80
2013,07,09,16,15,23.90
2013,07,09,16,16,23.90
2013,07,09,16,17,23.90
2013,07,09,16,18,24.00
2013,07,09,16,19,24.10
2013,07,09,16,20,24.10
2013,07,09,16,21,24.20
2013,07,09,16,22,24.30
2013,07,09,16,23,24.40
2013,07,09,16,24,24.40
2013,07,09,16,25,24.50
2013,07,09,16,26,24.60
2013,07,09,16,27,24.70
2013,07,09,16,28,24.80
2013,07,09,16,29,24.90
2013,07,09,16,30,24.90
2013,07,09,16,31,25.00
2013,07,09,16,32,25.10
2013,07,09,16,33,25.20
2013,07,09,16,34,25.30
2013,07,09,16,35,25.20
2013,07,09,16,36,25.10
2013,07,09,16,37,25.10
2013,07,09,16,38,25.10
2013,07,09,16,39,25.00
2013,07,09,16,40,25.00
2013,07,09,16,41,25.00
2013,07,09,16,42,25.00
2013,07,09,16,43,25.10
2013,07,09,16,44,25.10
2013,07,09,16,45,25.20
2013,07,09,16,46,25.20
2013,07,09,16,47,25.20
2013,07,09,16,48,25.20
2013,07,09,16,49,25.20
2013,07,09,16,50,25.30
2013,07,09,16,51,25.30
2013,07,09,16,52,25.30
2013,07,09,16,53,25.30
2013,07,09,16,54,25.30
2013,07,09,16,55,25.30
2013,07,09,16,56,25.30
2013,07,09,16,57,25.30
2013,07,09,16,58,25.20
2013,07,09,16,59,25.20
2013,07,09,17,00,25.10
2013,07,09,17,01,25.00
2013,07,09,17,02,24.90
2013,07,09,17,03,24.90
2013,07,09,17,04,24.90
2013,07,09,17,05,24.90
2013,07,09,17,06,25.00
2013,07,09,17,07,25.00
2013,07,09,17,08,25.00
2013,07,09,17,09,25.00
2013,07,09,17,10,25.00
2013,07,09,17,11,25.10
2013,07,09,17,12,25.00
2013,07,09,17,13,24.90
2013,07,09,17,14,24.80
2013,07,09,17,15,24.60
2013,07,09,17,16,24.40
2013,07,09,17,17,24.20
2013,07,09,17,18,24.10
2013,07,09,17,19,24.00